Wind_Speed
1 1 1 1 1 1 1 1 2 2 2 3 4 5 6 6 6 6 5 5 6 6 6 6 6 5 5 5 5 5 6 6 6 5 5 5 5 6 7 7 7 8 8 7 7 7 8 9 10
2 1 1 1 1 1 2 2 2 2 3 4 5 6 6 6 6 6 6 5 6 6 6 5 6 6 6 6 6 5 5 6 6 6 6 6 6 7 7 7 8 8 8 8 8 7 8 9 10
2 2 2 1 1 2 2 2 3 2 3 4 5 6 6 6 6 6 6 6 6 6 6 5 5 5 5 6 5 5 5 6 6 6 6 7 8 8 8 8 8 8 7 8 8 9 9 9 9
2 2 2 2 2 2 2 3 3 3 4 4 5 5 5 6 6 5 5 5 6 6 6 5 5 5 5 5 5 5 6 6 6 6 6 7 8 8 8 8 8 8 8 9 9 8 8 8 9
3 3 2 2 2 2 2 3 3 4 4 4 4 5 5 5 5 5 5 5 6 6 5 6 5 5 5 6 5 5 6 6 6 6 6 7 7 7 7 7 8 8 8 8 8 8 8 9 10
4 4 3 3 3 2 3 3 4 4 4 4 4 4 5 5 5 5 5 6 6 6 6 6 5 5 6 6 5 5 5 5 5 6 6 6 7 8 8 8 8 8 8 8 8 8 9 10 10
4 4 4 3 3 3 3 4 4 4 4 3 4 4 4 5 5 5 5 5 5 5 6 6 5 5 5 5 5 4 4 4 5 5 5 6 7 8 8 8 8 8 8 7 8 8 9 10 10
4 4 4 3 3 3 3 4 5 4 4 3 4 4 4 4 5 5 5 5 5 5 6 6 6 6 5 5 5 4 4 4 4 5 5 5 6 7 7 8 8 8 8 7 7 8 8 9 9
3 3 4 4 4 4 4 5 5 5 5 4 4 4 4 4 5 5 5 5 5 6 6 6 6 6 5 5 4 4 4 3 4 4 4 5 5 6 6 7 8 8 8 8 8 8 9 9 9
4 4 4 4 4 4 5 6 6 6 5 4 4 3 4 5 5 6 5 6 6 6 7 6 6 6 5 5 5 4 4 3 3 3 3 3 3 4 5 6 7 7 7 8 8 8 9 9 9
4 4 4 4 4 5 5 6 6 6 5 4 4 4 4 5 6 6 5 5 6 6 6 6 6 6 5 5 4 4 4 3 3 3 3 3 3 4 5 6 6 7 7 7 7 8 8 8 9
3 3 4 4 4 5 5 6 6 6 5 5 4 4 4 5 6 5 5 6 6 6 6 6 6 6 5 5 5 5 4 4 3 3 2 2 3 3 4 5 6 6 6 7 7 7 8 8 8
3 3 4 4 5 5 6 6 6 5 5 5 5 4 4 5 5 5 5 5 6 6 6 6 6 6 5 5 5 5 4 3 3 2 2 3 4 4 5 4 5 5 6 6 6 7 7 7 6
4 4 4 5 5 5 6 6 6 5 5 5 5 5 4 4 4 5 5 5 5 5 6 6 6 6 5 5 5 4 4 4 3 3 3 3 4 4 5 5 5 5 5 5 6 6 7 7 7
4 4 5 5 5 5 6 6 6 6 6 6 5 4 4 4 4 5 5 5 5 6 6 6 6 6 5 5 4 4 5 4 4 3 4 4 4 5 5 5 5 6 6 6 6 6 6 7 7
5 5 5 5 6 6 6 6 6 5 6 6 5 5 5 5 4 4 5 5 6 6 6 6 6 6 5 5 4 5 5 5 4 4 4 5 5 5 5 6 5 6 6 5 6 6 6 6 6
6 6 6 6 6 6 7 6 5 6 6 6 5 5 5 4 4 4 4 5 5 5 5 5 6 6 6 6 5 5 5 5 5 4 5 5 5 6 6 5 5 5 5 5 6 6 6 6 6
7 7 6 7 7 7 7 6 6 6 6 6 5 5 4 4 4 4 4 5 5 5 4 5 6 7 7 6 5 5 6 6 5 5 5 5 5 5 5 5 5 5 5 5 5 6 6 6 6
8 8 8 7 7 7 7 7 7 7 7 6 6 5 5 4 4 4 4 4 5 5 5 5 6 7 7 6 6 5 6 6 5 5 4 4 4 4 4 4 4 5 5 5 5 6 6 6 5
9 9 9 8 8 8 7 7 8 8 7 7 6 5 5 5 5 5 5 5 5 5 5 6 6 6 7 7 6 5 5 5 5 4 4 4 5 5 5 4 4 4 5 5 5 6 6 6 5
10 10 10 9 8 8 8 7 8 7 7 7 7 6 6 6 6 5 5 5 6 6 6 7 7 7 7 7 6 5 4 5 4 4 4 5 5 5 5 4 4 5 5 5 6 6 6 6 6
12 11 11 10 9 9 9 8 8 7 7 7 8 8 7 7 6 6 5 5 6 6 7 7 7 7 7 7 7 6 5 5 5 4 5 5 5 5 5 5 5 5 6 6 6 7 7 7 7
12 12 12 11 11 10 10 10 8 8 8 8 8 8 7 7 7 6 6 6 7 7 7 7 7 8 8 8 7 6 6 5 5 5 5 6 5 5 5 5 6 6 6 6 7 7 8 8 8
13 13 13 12 12 11 10 11 9 9 9 9 9 9 8 8 7 7 7 7 8 7 7 7 7 7 7 7 7 7 6 5 5 6 6 6 6 6 5 5 6 6 6 6 7 8 8 9 9
15 14 14 14 13 12 11 11 10 9 9 9 10 10 10 9 8 8 9 8 8 8 7 7 7 7 7 7 8 7 6 6 6 6 7 7 6 6 6 6 6 6 7 7 8 8 9 9 9
16 16 15 15 14 13 12 11 10 10 10 10 10 10 10 10 9 9 9 8 8 8 8 7 7 8 8 8 8 7 7 7 7 7 8 8 7 7 7 7 7 8 8 8 9 9 10 10 10
17 17 16 16 16 15 14 12 11 11 11 11 11 11 10 10 9 9 8 8 8 8 8 8 8 8 8 8 8 8 8 8 8 8 8 8 8 8 8 8 8 9 9 10 10 10 11 11 11
18 18 17 17 17 16 15 13 12 12 12 12 12 11 11 10 10 9 8 9 9 9 9 8 9 9 9 9 8 8 8 9 9 9 9 9 9 9 9 10 10 11 11 11 11 11 10 10 10
19 19 18 18 18 18 16 14 13 13 13 13 13 13 12 11 11 10 10 9 10 10 10 10 10 10 10 10 10 10 10 10 11 11 10 10 10 10 11 11 11 11 12 12 11 11 11 11 11
21 21 20 19 19 19 19 16 15 15 15 14 14 14 13 12 11 11 11 11 11 10 11 11 11 11 11 11 11 12 11 11 11 11 11 11 11 11 12 12 12 11 11 11 12 11 11 11 11
Wind_Direction
53 19 326 273 318 320 333 326 328 325 334 338 337 340 343 345 340 335 333 329 323 321 320 316 306 307 308 301 291 290 291 287 285 284 277 271 273 271 272 263 265 265 263 268 268 255 242 241 244
45 32 340 317 331 342 327 309 314 329 331 332 333 336 337 340 340 336 330 327 323 320 319 314 311 312 311 302 287 287 284 285 285 282 272 270 271 272 269 260 263 264 264 270 268 260 253 247 246
42 30 17 5 14 5 337 319 324 333 331 331 336 340 340 343 344 337 332 330 326 319 315 317 314 314 313 307 292 284 287 291 291 285 276 270 268 270 269 264 264 264 262 262 262 261 255 247 246
26 25 33 21 15 8 347 329 329 330 330 331 336 342 346 347 349 345 340 336 334 329 321 318 315 313 313 309 300 286 285 289 285 280 273 269 266 266 270 267 265 264 267 267 259 253 247 246 245
25 35 30 14 6 5 359 340 333 331 332 332 338 346 351 350 349 348 344 341 339 340 336 330 325 319 312 307 304 301 290 286 280 279 271 268 267 265 263 268 263 259 260 267 260 249 248 251 249
28 30 24 5 2 6 358 354 352 346 341 337 344 353 355 355 352 349 346 341 342 343 341 338 333 326 317 310 305 301 294 293 290 284 275 266 265 263 264 263 263 260 260 266 263 249 250 252 249
32 32 27 15 8 10 6 0 357 353 348 351 1 358 355 357 357 354 346 344 344 339 336 337 332 330 326 320 320 314 304 297 293 285 276 263 264 266 264 262 267 266 260 265 261 252 253 250 248
32 32 27 20 24 30 23 9 2 359 2 3 5 1 357 358 357 354 350 349 344 341 342 343 339 335 335 333 327 325 316 307 293 283 283 273 264 263 267 265 265 267 265 262 261 257 253 250 249
35 31 23 15 21 26 23 13 9 2 2 7 9 9 5 358 352 350 350 350 349 345 343 340 336 335 336 340 339 333 325 318 301 292 287 273 267 266 267 267 265 264 267 268 263 256 253 253 253
36 31 22 14 10 16 14 9 6 1 4 6 6 3 357 353 349 348 352 354 349 344 343 339 339 339 340 342 340 334 328 321 313 308 291 273 269 268 267 267 267 266 271 273 268 259 259 258 258
31 26 18 15 6 4 2 1 2 3 7 7 6 0 352 347 345 345 348 348 346 344 347 348 344 343 341 334 330 324 318 311 306 313 312 298 286 281 273 268 265 266 270 271 267 261 260 258 256
13 9 4 4 4 4 3 0 358 360 8 7 6 357 348 345 345 348 348 346 347 347 347 345 344 343 342 339 331 326 314 309 308 310 318 314 306 300 287 277 266 269 271 274 271 265 261 257 256
344 344 346 352 357 359 5 4 2 -0 3 1 356 347 343 344 346 349 349 347 346 347 348 344 343 341 339 339 331 331 321 304 302 312 315 311 305 303 296 290 278 270 269 271 276 277 275 268 264
313 322 334 342 348 352 355 355 355 356 356 352 349 351 348 343 345 347 343 343 343 344 347 344 342 343 342 336 336 334 328 310 306 309 312 313 307 306 304 293 290 281 277 275 280 282 283 277 268
306 310 319 328 335 343 349 350 353 349 348 350 347 343 336 336 344 342 340 340 342 344 344 342 344 345 342 339 337 337 335 325 312 309 309 310 308 306 302 299 290 287 284 281 280 281 284 279 276
296 305 308 317 328 340 344 346 349 342 340 344 346 340 327 326 332 336 335 335 337 336 341 345 351 352 352 346 346 343 341 330 311 307 307 306 302 300 295 294 287 286 288 287 285 283 284 280 278
293 298 304 310 321 330 333 335 339 334 335 338 341 336 326 327 323 324 328 332 334 329 339 344 346 350 351 351 350 344 343 339 320 305 305 306 303 299 296 291 288 285 285 291 289 284 286 285 278
286 291 297 302 311 318 318 321 324 324 325 325 331 328 320 316 317 318 323 325 333 330 335 336 335 342 343 342 341 344 348 345 333 314 306 312 309 302 298 293 288 281 281 288 292 287 290 293 287
279 285 291 298 302 306 308 310 313 313 315 318 324 329 328 312 304 310 318 320 323 325 327 329 330 336 338 334 337 342 343 343 338 322 315 313 308 304 300 295 292 285 282 283 287 294 297 294 290
274 277 283 290 296 299 302 305 306 309 311 313 318 325 329 323 308 309 318 321 318 320 326 330 333 336 339 336 336 336 336 339 337 324 321 316 311 306 299 292 292 288 286 286 291 298 298 300 294
272 272 275 281 287 294 295 298 304 310 309 309 313 319 320 319 316 309 311 316 316 318 320 322 325 329 334 334 332 326 332 334 331 325 318 315 311 306 299 290 285 285 285 288 293 297 296 295 293
270 270 274 278 281 286 291 295 300 304 305 307 311 313 312 310 311 317 316 314 314 316 316 316 320 322 325 329 327 324 320 322 320 317 308 308 311 308 296 292 292 292 289 291 293 292 294 294 290
268 268 271 276 280 283 288 290 295 296 296 298 302 305 307 306 308 310 311 311 312 314 316 316 318 320 321 326 327 324 319 319 323 327 325 322 322 316 307 298 300 298 296 297 295 292 290 293 289
268 267 270 273 277 279 285 286 289 292 293 294 296 299 300 298 300 302 302 303 305 308 312 315 315 317 319 323 326 320 315 315 319 322 321 318 318 314 309 302 297 294 293 296 298 294 290 291 293
265 267 270 271 273 278 282 284 290 292 294 295 295 297 297 293 292 296 298 299 298 300 303 309 310 312 316 320 320 315 314 311 311 315 314 315 315 310 304 300 297 297 296 297 297 296 292 290 290
264 266 270 274 275 276 278 283 289 291 292 293 293 295 295 291 290 293 295 296 295 298 301 304 306 305 307 312 315 312 312 310 306 308 308 309 311 307 303 300 296 295 297 298 299 297 295 292 291
260 262 266 270 273 274 276 280 283 286 286 287 289 290 292 290 289 289 290 292 295 297 300 304 305 304 304 309 315 310 307 308 305 308 308 308 306 304 303 302 298 298 298 298 298 297 297 292 291
257 260 262 267 271 273 274 278 281 282 283 283 284 285 285 286 284 283 286 290 293 295 297 303 303 302 302 303 306 306 303 303 304 306 307 307 306 305 304 301 298 297 297 297 299 300 300 297 294
257 257 260 264 268 272 274 275 278 278 279 278 277 278 278 281 282 280 280 284 288 291 293 296 297 299 300 298 298 299 299 301 301 301 303 304 304 302 301 300 297 294 294 295 295 296 296 295 294
257 258 259 262 265 268 271 273 274 274 275 275 275 276 275 276 278 277 278 281 285 288 290 292 294 297 297 296 295 296 298 302 300 298 299 300 300 300 298 299 298 296 295 294 294 293 293 293 293
Height
5875 5875 5875 5876 5877 5876 5875 5875 5875 5874 5874 5874 5873 5873 5872 5872 5873 5874 5872 5870 5869 5869 5868 5868 5866 5866 5866 5865 5865 5865 5865 5865 5864 5864 5864 5865 5865 5865 5865 5866 5866 5866 5866 5866 5865 5864 5864 5867 5869
5875 5876 5877 5877 5876 5875 5876 5875 5875 5875 5874 5873 5873 5873 5872 5871 5871 5871 5870 5869 5868 5868 5867 5867 5866 5865 5865 5864 5864 5864 5863 5863 5863 5863 5863 5863 5864 5864 5864 5864 5865 5865 5865 5865 5865 5865 5865 5866 5868
5876 5877 5878 5877 5876 5876 5876 5875 5875 5875 5874 5874 5873 5872 5872 5871 5870 5870 5869 5868 5868 5867 5866 5866 5865 5865 5864 5863 5862 5862 5862 5862 5862 5862 5862 5862 5863 5863 5863 5863 5864 5864 5864 5864 5864 5864 5865 5865 5866
5878 5878 5878 5877 5876 5876 5876 5875 5875 5874 5874 5873 5873 5872 5871 5871 5870 5869 5868 5868 5867 5866 5866 5865 5864 5864 5863 5862 5861 5861 5861 5861 5861 5861 5861 5861 5861 5861 5862 5862 5862 5862 5863 5863 5863 5863 5864 5864 5864
5878 5878 5878 5877 5877 5877 5876 5875 5875 5874 5873 5873 5872 5871 5871 5870 5869 5869 5868 5867 5867 5866 5865 5864 5863 5862 5862 5861 5860 5860 5860 5860 5859 5859 5859 5860 5860 5860 5860 5860 5861 5861 5861 5861 5861 5862 5862 5862 5863
5879 5878 5878 5877 5877 5876 5876 5875 5874 5874 5873 5873 5872 5871 5871 5870 5869 5868 5868 5867 5866 5865 5864 5863 5862 5862 5861 5860 5859 5859 5858 5858 5858 5858 5858 5858 5858 5858 5859 5859 5859 5859 5859 5859 5860 5860 5860 5861 5861
5879 5878 5878 5878 5877 5877 5876 5875 5874 5874 5873 5872 5872 5871 5870 5870 5869 5868 5867 5866 5865 5865 5864 5863 5862 5861 5860 5859 5858 5858 5857 5857 5857 5857 5857 5857 5857 5857 5857 5857 5857 5857 5858 5858 5858 5858 5858 5859 5859
5879 5880 5878 5878 5877 5877 5876 5875 5874 5873 5873 5872 5872 5871 5870 5870 5869 5868 5867 5866 5865 5864 5863 5862 5861 5860 5859 5858 5858 5857 5857 5856 5856 5856 5856 5855 5855 5855 5855 5856 5856 5856 5856 5856 5856 5856 5856 5857 5857
5880 5881 5879 5878 5878 5877 5876 5875 5874 5873 5873 5872 5871 5871 5870 5869 5869 5868 5867 5866 5865 5864 5862 5861 5860 5859 5859 5858 5857 5856 5856 5856 5855 5855 5854 5854 5854 5854 5854 5854 5854 5854 5854 5854 5855 5854 5854 5855 5855
5880 5880 5879 5879 5878 5877 5876 5875 5874 5873 5873 5872 5871 5870 5870 5869 5868 5867 5866 5865 5864 5863 5862 5861 5860 5859 5858 5857 5857 5856 5856 5855 5854 5854 5853 5853 5853 5853 5853 5853 5853 5853 5853 5852 5853 5852 5852 5852 5853
5880 5880 5879 5879 5878 5877 5876 5875 5874 5873 5872 5872 5871 5870 5869 5868 5867 5867 5866 5865 5864 5862 5861 5860 5859 5858 5858 5857 5856 5856 5855 5854 5854 5853 5852 5852 5852 5852 5852 5852 5852 5851 5851 5851 5851 5851 5851 5851 5851
5880 5880 5880 5879 5878 5877 5876 5875 5874 5873 5873 5872 5871 5870 5869 5868 5867 5866 5865 5864 5863 5862 5861 5860 5859 5858 5857 5856 5856 5855 5854 5854 5853 5852 5851 5851 5851 5851 5850 5850 5850 5850 5850 5850 5849 5849 5849 5849 5849
5881 5880 5880 5879 5878 5877 5876 5875 5874 5873 5872 5871 5871 5870 5869 5867 5867 5866 5865 5864 5863 5862 5861 5860 5859 5858 5857 5856 5855 5854 5853 5853 5852 5851 5851 5850 5850 5850 5849 5849 5849 5849 5849 5848 5848 5848 5848 5847 5847
5880 5880 5879 5879 5878 5877 5877 5876 5874 5873 5872 5871 5870 5870 5869 5867 5866 5866 5865 5863 5862 5861 5860 5859 5858 5857 5856 5855 5854 5853 5853 5852 5851 5851 5850 5849 5849 5849 5848 5848 5848 5847 5847 5847 5847 5846 5846 5846 5846
5880 5880 5880 5879 5878 5877 5877 5876 5874 5873 5872 5871 5870 5869 5868 5867 5866 5865 5864 5863 5862 5861 5860 5859 5858 5857 5856 5855 5854 5853 5852 5851 5850 5850 5849 5849 5848 5848 5847 5847 5847 5846 5846 5846 5845 5845 5845 5845 5845
5879 5879 5879 5879 5877 5877 5878 5876 5874 5873 5872 5871 5870 5869 5868 5867 5866 5865 5863 5862 5861 5860 5859 5858 5857 5856 5855 5854 5853 5852 5851 5850 5849 5849 5848 5847 5847 5846 5846 5846 5845 5845 5845 5844 5844 5844 5844 5844 5843
5878 5878 5878 5878 5877 5876 5876 5875 5874 5872 5871 5870 5869 5868 5867 5866 5865 5864 5863 5862 5861 5860 5859 5858 5857 5855 5854 5853 5852 5851 5850 5849 5848 5848 5847 5846 5846 5845 5845 5844 5844 5844 5844 5843 5843 5843 5843 5842 5842
5877 5877 5877 5877 5876 5875 5875 5874 5873 5872 5871 5870 5869 5868 5867 5866 5864 5863 5862 5861 5860 5859 5858 5857 5856 5855 5854 5853 5852 5851 5850 5848 5847 5846 5846 5845 5845 5844 5844 5843 5843 5843 5843 5842 5842 5842 5842 5841 5841
5876 5876 5876 5876 5875 5874 5874 5873 5872 5871 5870 5869 5868 5867 5866 5865 5864 5862 5861 5861 5860 5859 5858 5857 5856 5854 5853 5852 5851 5850 5849 5848 5847 5846 5845 5844 5844 5843 5843 5842 5842 5841 5841 5841 5841 5841 5840 5840 5839
5874 5875 5875 5874 5873 5873 5872 5872 5871 5870 5869 5868 5867 5866 5865 5863 5862 5861 5861 5860 5859 5858 5857 5856 5855 5853 5852 5851 5850 5849 5848 5847 5846 5845 5844 5844 5843 5842 5842 5841 5841 5840 5840 5840 5840 5840 5839 5838 5838
5873 5873 5873 5873 5872 5871 5872 5872 5870 5869 5868 5867 5866 5865 5863 5862 5861 5860 5859 5859 5858 5857 5856 5855 5854 5853 5851 5850 5849 5848 5847 5846 5845 5844 5844 5843 5842 5841 5841 5840 5840 5840 5839 5839 5839 5838 5838 5837 5837
5871 5871 5871 5871 5870 5870 5870 5870 5869 5868 5867 5866 5865 5863 5862 5861 5860 5859 5858 5857 5856 5855 5854 5853 5852 5851 5850 5850 5849 5848 5847 5846 5845 5844 5843 5842 5841 5840 5840 5839 5839 5838 5838 5838 5837 5837 5836 5836 5835
5868 5868 5868 5868 5868 5868 5868 5868 5868 5866 5865 5864 5863 5862 5861 5860 5859 5858 5857 5856 5855 5854 5853 5852 5851 5850 5849 5848 5847 5846 5845 5845 5844 5843 5842 5841 5840 5839 5839 5838 5837 5837 5837 5836 5836 5835 5835 5834 5833
5865 5866 5866 5865 5866 5867 5866 5866 5866 5865 5864 5863 5862 5860 5859 5858 5857 5856 5855 5854 5853 5853 5852 5851 5850 5849 5848 5847 5846 5845 5844 5843 5843 5842 5841 5840 5839 5838 5837 5837 5836 5836 5835 5835 5834 5833 5833 5832 5831
5862 5863 5863 5863 5863 5864 5864 5863 5864 5863 5862 5861 5860 5858 5857 5856 5856 5855 5854 5853 5852 5851 5850 5849 5848 5847 5846 5846 5845 5844 5843 5842 5841 5840 5840 5839 5838 5837 5836 5835 5835 5834 5833 5833 5832 5831 5831 5830 5829
5859 5860 5861 5861 5861 5861 5861 5861 5862 5861 5859 5858 5857 5856 5855 5854 5854 5853 5852 5851 5850 5849 5849 5848 5847 5846 5845 5844 5843 5842 5841 5840 5840 5839 5838 5837 5836 5835 5834 5834 5833 5832 5831 5830 5830 5829 5828 5827 5826
5855 5856 5857 5857 5857 5858 5858 5859 5859 5858 5857 5856 5855 5854 5853 5852 5852 5851 5850 5849 5849 5848 5847 5846 5845 5844 5843 5842 5841 5840 5839 5839 5838 5837 5836 5835 5834 5833 5832 5831 5831 5830 5829 5828 5827 5826 5825 5824 5823
5852 5852 5853 5853 5853 5854 5855 5855 5856 5854 5854 5853 5853 5852 5851 5850 5850 5849 5848 5848 5847 5846 5845 5844 5843 5842 5841 5840 5839 5838 5837 5836 5836 5835 5834 5833 5832 5831 5830 5829 5828 5827 5826 5825 5824 5823 5822 5821 5821
5847 5848 5848 5849 5849 5850 5851 5854 5852 5851 5851 5850 5850 5849 5849 5848 5847 5846 5846 5845 5844 5844 5843 5842 5841 5840 5839 5838 5837 5836 5835 5834 5833 5832 5831 5830 5829 5828 5827 5826 5825 5824 5823 5822 5821 5820 5819 5819 5818
5842 5843 5844 5845 5845 5845 5846 5851 5848 5847 5847 5846 5846 5846 5845 5845 5844 5844 5843 5843 5842 5841 5840 5839 5838 5837 5836 5835 5834 5833 5832 5831 5830 5829 5828 5827 5826 5825 5824 5823 5822 5820 5820 5819 5818 5817 5816 5816 5815